weather.gov     
National Weather Service

Terminal Aerodrome Forecast
NWS Homepage
This page is being discontinued on March 12, 2014.
The same data is available at this site. Please update your bookmarks.
Thank you, and we apologize for the inconvenience.
Please send an email to SR-SRH.Webmaster@noaa.gov with any concerns.


Current Version
Previous Version:    01  02  03  04  05  06  07  08  09  10  11  12  13  14  15  16  17  
[Printable]
879
FTUS45 KRIW 311100
TAFJAC
TAF
KJAC 311122Z 3112/0112 36006KT P6SM SCT130 BKN200
     FM311400 VRB05KT P6SM SCT130 BKN200
     FM311900 18008KT P6SM SCT130 BKN200
     FM010200 VRB05KT P6SM BKN140
      AMD LTD TO CLD VIS AND WIND=


U.S. Dept. of Commerce
NOAA National Weather Service
1325 East West Highway
Silver Spring, MD 20910
E-mail: w-nws.webmaster@noaa.gov
Page last modified: May 16, 2007
NATIONAL WEATHER SERVICE: for Safety, for Work, for Fun - FOR LIFE